ONEWEB-0147

Last updated on Mon Jan 18 2021 00:02:03 GMT+0000 (Coordinated Universal Time)

1 47293U 20100AM 21017.58334491 -.01477378 00000-0 -11716+0 0 9990 2 47293 87.3876 29.0906 0011235 142.5188 56.5388 15.03985241 1906

Satellite not in orbit